Overview Statistics Trail Chart Weather Telemetry Raw packets
 

This is the latest recevied weather packets stored in our database for station/object N7IGG. If no packets are shown the sender has not sent any weather packets the latest 10 day(s).

<< 94 95 96 97 98 99 100 >>
Time Temp. Humidity Pressure Rain* Wind** Luminosity Snow
1777487136 13.89° C 75% 1024.3 hPa 0 mm - 509 W/m² -
1777486832 13.89° C 77% 1024.3 hPa 0 mm - 62 W/m² -
1777486530 13.33° C 78% 1024.5 hPa 0 mm - 551 W/m² -
1777486227 12.78° C 81% 1024.4 hPa 0 mm - 57 W/m² -
1777485931 12.78° C 83% 1024.5 hPa 0 mm - 565 W/m² -
1777485620 12.78° C 83% 1024.5 hPa 0 mm - 234 W/m² -
1777485315 12.22° C 82% 1024.3 hPa 0 mm - 217 W/m² -
1777485012 12.22° C 83% 1024.3 hPa 0 mm - 131 W/m² -
1777484710 12.22° C 83% 1024.6 hPa 0 mm - 53 W/m² -
1777484405 12.22° C 84% 1024.5 hPa 0 mm - 56 W/m² -
1777484102 12.22° C 84% 1024.6 hPa 0 mm - 191 W/m² -
1777483798 12.22° C 84% 1024.6 hPa 0 mm - 50 W/m² -
1777483495 12.22° C 84% 1024.7 hPa 0 mm - 51 W/m² -
1777483189 11.67° C 84% 1024.9 hPa 0 mm - 48 W/m² -
1777482887 11.67° C 84% 1024.8 hPa 0 mm - 50 W/m² -
1777482583 11.67° C 85% 1024.7 hPa 0 mm - 50 W/m² -
1777482280 11.67° C 85% 1024.8 hPa 0 mm - 48 W/m² -
1777481977 11.11° C 86% 1024.7 hPa 0 mm - 48 W/m² -
1777481675 11.11° C 86% 1025 hPa 0 mm - 45 W/m² -
1777481372 11.11° C 87% 1025 hPa 0 mm - 86 W/m² -
1777481068 11.11° C 87% 1025.1 hPa 0 mm - 44 W/m² -
1777480765 11.11° C 88% 1025.2 hPa 0 mm - 45 W/m² -
1777480462 11.11° C 88% 1025.1 hPa 0 mm - 44 W/m² -
1777480157 10.56° C 89% 1025.2 hPa 0 mm - 59 W/m² -
1777479855 10.56° C 89% 1025 hPa 0 mm - 116 W/m² -

* Rain latest hour (hover to see other rain measurements)
** Current wind speed in m/s (hover to see current wind gust speed)